Salina, KS

6:51 AM CST on February 06, 2016 (GMT -0600)
Salina Municipal

Weather History for KSLN - April, 2013

Change the Weather History Date:

Thursday, April 25, 2013

  Actual Average Record
Temperature  
Mean Temperature 52 °F 58 °F  
Max Temperature 72 °F 70 °F 94 °F (1989)
Min Temperature 31 °F 47 °F 31 °F (1910)
Degree Days  
Heating Degree Days 13 8  
Month to date heating degree days 428 283  
Since 1 July heating degree days 4772 4733  
Cooling Degree Days 0 1  
Month to date cooling degree days 2 17  
Year to date cooling degree days 2 19  
Moisture  
Dew Point 35 °F    
Average Humidity 59    
Maximum Humidity 92    
Minimum Humidity 25    
Precipitation  
Precipitation T in 0.12 in 0.68 in (1999)
Month to date precipitation 2.25 2.48  
Year to date precipitation 6.14 6.67  
Sea Level Pressure  
Sea Level Pressure 30.20 in    
Wind  
Wind Speed 10 mph (South)    
Max Wind Speed 25 mph    
Max Gust Speed 32 mph    
Visibility 10 miles    
Events      
T = Trace of Precipitation, MM = Missing Value Source: NWS Daily Summary

Daily Weather History Graph

Daily Weather History Graph

Search for Another Location

Airport or City:

Trip Planner

Search our weather history database for the weather conditions in past years. The results will help you decide how hot, cold, wet, or windy it might be!

Date:

Astronomy

Apr. 25, 2013 Rise Set
Actual Time 6:40 AM CDT 8:17 PM CDT
Civil Twilight 6:11 AM CDT 8:45 PM CDT
Nautical Twilight 5:37 AM CDT 9:19 PM CDT
Astronomical Twilight 5:01 AM CDT 9:56 PM CDT
Moon 8:31 PM CDT (4/25) 6:24 AM CDT (4/25)
Length of Visible Light 14h 33m
Length of Day
13h 37m
Full, 100% of the Moon is Illuminated
Apr 25
Full
Apr 25
Full
May 2
Last Quarter
May 9
New
May 17
First Quarter

Hourly Weather History & Observations

Time (CDT) Temp. Windchill Dew Point Humidity Pressure Visibility Wind Dir Wind Speed Gust Speed Precip Events Conditions
12:53 AM 39.9 °F 35.8 °F 32.0 °F 73% 30.28 in 10.0 mi SW 5.8 mph - N/A   Clear
1:53 AM 39.0 °F - 30.9 °F 73% 30.28 in 10.0 mi Calm Calm - N/A   Clear
2:53 AM 37.9 °F - 30.9 °F 76% 30.27 in 10.0 mi Calm Calm - N/A   Clear
3:53 AM 33.1 °F 27.7 °F 28.9 °F 85% 30.28 in 10.0 mi South 5.8 mph - N/A   Clear
4:53 AM 37.0 °F - 30.0 °F 76% 30.27 in 10.0 mi Calm Calm - N/A   Clear
5:53 AM 30.9 °F 25.2 °F 28.0 °F 89% 30.28 in 10.0 mi SSW 5.8 mph - N/A   Clear
6:53 AM 32.0 °F 27.5 °F 28.0 °F 85% 30.28 in 10.0 mi SSE 4.6 mph - N/A   Clear
7:53 AM 36.0 °F 33.3 °F 32.0 °F 86% 30.29 in 10.0 mi South 3.5 mph - N/A   Clear
8:53 AM 45.0 °F 41.2 °F 36.0 °F 71% 30.30 in 10.0 mi South 6.9 mph - N/A   Clear
9:53 AM 52.0 °F - 37.0 °F 57% 30.29 in 10.0 mi SSW 5.8 mph - N/A   Clear
10:53 AM 59.0 °F - 35.1 °F 41% 30.27 in 10.0 mi SW 11.5 mph 18.4 mph N/A   Clear
11:53 AM 62.1 °F - 36.0 °F 38% 30.26 in 10.0 mi SSW 12.7 mph - N/A   Clear
12:53 PM 66.0 °F - 36.0 °F 33% 30.24 in 10.0 mi SSW 17.3 mph - N/A   Clear
1:53 PM 69.1 °F - 37.9 °F 32% 30.20 in 10.0 mi South 16.1 mph 20.7 mph N/A   Clear
2:53 PM 70.0 °F - 34.0 °F 27% 30.18 in 10.0 mi South 20.7 mph 26.5 mph N/A   Clear
3:53 PM 71.1 °F - 34.0 °F 26% 30.14 in 10.0 mi South 19.6 mph 28.8 mph N/A   Clear
4:53 PM 69.1 °F - 39.9 °F 35% 30.11 in 10.0 mi South 17.3 mph 26.5 mph N/A   Clear
5:53 PM 64.9 °F - 39.0 °F 39% 30.11 in 10.0 mi South 17.3 mph 27.6 mph N/A   Clear
6:53 PM 63.0 °F - 39.0 °F 41% 30.08 in 10.0 mi SSE 20.7 mph - N/A   Clear
7:53 PM 60.1 °F - 37.9 °F 44% 30.07 in 10.0 mi South 13.8 mph - N/A   Clear
8:53 PM 57.9 °F - 37.9 °F 47% 30.05 in 10.0 mi SSE 15.0 mph - N/A   Clear
9:53 PM 57.0 °F - 39.9 °F 53% 30.08 in 10.0 mi Calm Calm - N/A   Clear
10:53 PM 55.0 °F - 42.1 °F 62% 30.10 in 10.0 mi Calm Calm - N/A   Clear
11:53 PM 55.9 °F - 39.9 °F 55% 30.08 in 10.0 mi ESE 6.9 mph - N/A   Clear